Погода в Покровском

Россия / Ростовская область     47°24′08″N   38°54′33″E
темп.,
°C
ветер,
м/с
пор.,
м/с
влажн.,
%
обл.,
%
осадки,
мм/ч
давл.,
гПа
погр.,
м
18 мая, вт
вт1800:00+16зюз4895100 0.7 1007296
03:00+15юз3795100 1.0 1008452
06:00+15ююз3597100 1.1 1008254
09:00+18юз6774100 2.8 1008955
12:00+20юз786598 0.1 10091368
15:00+20юз911590 0.1 10081295
18:00+19юз510660 0.0 10081115
21:00+15ю368283 0.0 1009134
19 мая, ср
ср1900:00+15ююв3583100 0.0 1008123
03:00+14ю3791100 0.4 1008279
06:00+14ююв4894100 0.9 1007374
09:00+14юз4797100 12.6 1006516
12:00+13юз5991100 7.5 1009501
15:00+17юз7107354 8.2 10091306
18:00+16ююз710785 0.6 10091050
21:00+13ююз61296100 2.9 1009776
20 мая, чт
чт2000:00+14юз81491100 5.8 1009912
03:00+13юз8149241 6.3 1010685
06:00+13юз713891 0.0 1011835
09:00+17юз811700 0.1 10121087
12:00+20юз796140 0.0 10131649
15:00+20юз675810 0.1 10131337
18:00+18ююз4567100 0.0 1014452
21:00+14ююв1274100 0.0 101411
21 мая, пт
пт2100:00+14вюв3378100 0.0 101430
03:00+13всв358795 0.0 101376
06:00+14всв4108766 0.0 1013224
09:00+20в7106531 0.0 1013484
12:00+19в81470100 0.0 1011410
15:00+24в81160100 0.0 10101002
18:00+23в71366100 0.0 1009696
21:00+19всв6157719 0.0 1008332
22 мая, сб
сб2200:00+19в715635 0.0 1007415
03:00+16в613670 0.0 1007298
06:00+15вюв410780 0.0 1008299
09:00+20вюв5768100 0.0 1008493
12:00+24вюв4460100 0.0 1008637
15:00+24ссв3470100 0.0 1007281
18:00+23вюв467885 0.0 1009283
21:00+20с2283100 0.0 100820